RZO125 LPPD-LPPT

Flight info

Callsign RZO125
Flight time 1h 41m
Altitude 34000
Route M080F340 BEKUN5Y BEKUN DCT LENSI T25 GUNTI/N0464F340 DCT LAZET LAZET1A
Aircraft A333/H-SDE3GHIJ2J3J5M1RVWXY/LB2D1

Departure

Time 2026-05-03 22:42
Airport João Paulo II Airport (LPPD)

Arrival

Time 2026-05-04 00:23
Airport Lisbon Humberto Delgado Airport (LPPT)
Time Latitude Longitude Altitude Speed Heading
2026-05-03 22:25 37.74801 -25.70863 288 ft 0 kts 21°
2026-05-03 22:36 37.74800 -25.70864 288 ft 1 kts 21°
2026-05-03 22:36 37.74786 -25.70871 286 ft 2 kts 22°
2026-05-03 22:36 37.74772 -25.70878 285 ft 2 kts 21°
2026-05-03 22:36 37.74760 -25.70884 283 ft 0 kts 21°
2026-05-03 22:37 37.74749 -25.70889 282 ft 2 kts
2026-05-03 22:37 37.74734 -25.70886 280 ft 2 kts 330°
2026-05-03 22:37 37.74722 -25.70875 280 ft 2 kts 302°
2026-05-03 22:37 37.74718 -25.70866 280 ft 1 kts 289°
2026-05-03 22:38 37.74717 -25.70861 280 ft 0 kts 291°
2026-05-03 22:39 37.74717 -25.70862 280 ft 0 kts 291°
2026-05-03 22:40 37.74727 -25.70893 279 ft 7 kts 292°
2026-05-03 22:40 37.74744 -25.70970 277 ft 10 kts 264°
2026-05-03 22:40 37.74674 -25.71037 264 ft 18 kts 214°
2026-05-03 22:40 37.74614 -25.71063 256 ft 3 kts 147°
2026-05-03 22:41 37.74591 -25.71016 257 ft 6 kts 115°
2026-05-03 22:41 37.74582 -25.70990 258 ft 0 kts 111°
2026-05-03 22:41 37.74544 -25.70871 262 ft 45 kts 111°
2026-05-03 22:42 37.74336 -25.70208 244 ft 116 kts 111°
2026-05-03 22:42 37.73955 -25.69043 370 ft 159 kts 110°
2026-05-03 22:42 37.73509 -25.67791 1030 ft 160 kts 111°
2026-05-03 22:42 37.73046 -25.66494 1757 ft 165 kts 107°
2026-05-03 22:43 37.72887 -25.65132 2539 ft 161 kts 83°
2026-05-03 22:43 37.73014 -25.63740 3310 ft 160 kts 79°
2026-05-03 22:43 37.73160 -25.62411 3871 ft 158 kts 80°
2026-05-03 22:43 37.73311 -25.60966 4147 ft 173 kts 81°
2026-05-03 22:44 37.73472 -25.59403 4423 ft 187 kts 81°
2026-05-03 22:44 37.73644 -25.57701 4635 ft 208 kts 81°
2026-05-03 22:44 37.73839 -25.55772 4995 ft 230 kts 81°
2026-05-03 22:44 37.74044 -25.53723 5486 ft 247 kts 81°
2026-05-03 22:45 37.74269 -25.51480 5977 ft 265 kts 81°
2026-05-03 22:45 37.74506 -25.49109 6436 ft 284 kts 81°
2026-05-03 22:45 37.74762 -25.46547 6881 ft 303 kts 81°
2026-05-03 22:45 37.75031 -25.43839 7402 ft 318 kts 81°
2026-05-03 22:46 37.75307 -25.41059 8234 ft 322 kts 82°
2026-05-03 22:46 37.75584 -25.38262 9007 ft 327 kts 82°
2026-05-03 22:46 37.75868 -25.35388 9766 ft 332 kts 82°
2026-05-03 22:46 37.76153 -25.32496 10536 ft 336 kts 82°
2026-05-03 22:47 37.76441 -25.29568 11274 ft 341 kts 82°
2026-05-03 22:47 37.76733 -25.26596 12037 ft 344 kts 83°
2026-05-03 22:47 37.77023 -25.23617 12742 ft 349 kts 83°
2026-05-03 22:47 37.77323 -25.20554 13420 ft 353 kts 83°
2026-05-03 22:48 37.77620 -25.17505 14091 ft 357 kts 83°
2026-05-03 22:48 37.77924 -25.14361 14760 ft 361 kts 83°
2026-05-03 22:48 37.78229 -25.11212 15391 ft 365 kts 83°
2026-05-03 22:48 37.78537 -25.08022 16055 ft 369 kts 83°
2026-05-03 22:49 37.78846 -25.04815 16679 ft 373 kts 83°
2026-05-03 22:49 37.79159 -25.01547 17279 ft 377 kts 83°
2026-05-03 22:49 37.79472 -24.98270 17868 ft 380 kts 83°
2026-05-03 22:49 37.79789 -24.94941 18431 ft 385 kts 83°
2026-05-03 22:50 37.80107 -24.91600 19017 ft 388 kts 83°
2026-05-03 22:50 37.80430 -24.88186 19574 ft 392 kts 83°
2026-05-03 22:50 37.80752 -24.84783 20096 ft 396 kts 83°
2026-05-03 22:50 37.81079 -24.81307 20644 ft 399 kts 83°
2026-05-03 22:51 37.81406 -24.77823 21162 ft 403 kts 82°
2026-05-03 22:51 37.81737 -24.74284 21678 ft 406 kts 82°
2026-05-03 22:51 37.82067 -24.70748 22172 ft 409 kts 82°
2026-05-03 22:51 37.82400 -24.67165 22644 ft 413 kts 82°
2026-05-03 22:52 37.82733 -24.63552 23142 ft 416 kts 82°
2026-05-03 22:52 37.83069 -24.59926 23586 ft 419 kts 82°
2026-05-03 22:52 37.83405 -24.56278 24001 ft 423 kts 82°
2026-05-03 22:52 37.83743 -24.52581 24439 ft 427 kts 82°
2026-05-03 22:53 37.84083 -24.48863 24847 ft 430 kts 82°
2026-05-03 22:53 37.84427 -24.45082 25266 ft 434 kts 82°
2026-05-03 22:53 37.84770 -24.41306 25687 ft 437 kts 82°
2026-05-03 22:53 37.85119 -24.37447 26108 ft 440 kts 82°
2026-05-03 22:54 37.85462 -24.33628 26502 ft 444 kts 83°
2026-05-03 22:54 37.85810 -24.29753 26894 ft 447 kts 83°
2026-05-03 22:54 37.86159 -24.25845 27279 ft 450 kts 83°
2026-05-03 22:54 37.86510 -24.21894 27658 ft 454 kts 83°
2026-05-03 22:55 37.86862 -24.17936 28056 ft 457 kts 83°
2026-05-03 22:55 37.87215 -24.13938 28429 ft 460 kts 83°
2026-05-03 22:55 37.87566 -24.09941 28810 ft 463 kts 83°
2026-05-03 22:55 37.87926 -24.05833 29186 ft 467 kts 83°
2026-05-03 22:56 37.88280 -24.01773 29545 ft 470 kts 83°
2026-05-03 22:56 37.88640 -23.97642 29900 ft 473 kts 83°
2026-05-03 22:56 37.88996 -23.93528 30265 ft 475 kts 83°
2026-05-03 22:56 37.89354 -23.89375 30644 ft 477 kts 83°
2026-05-03 22:57 37.89714 -23.85171 30985 ft 480 kts 82°
2026-05-03 22:57 37.90073 -23.80980 31320 ft 481 kts 82°
2026-05-03 22:57 37.90432 -23.76765 31642 ft 483 kts 82°
2026-05-03 22:57 37.90788 -23.72560 31963 ft 484 kts 82°
2026-05-03 22:58 37.91145 -23.68330 32235 ft 485 kts 82°
2026-05-03 22:58 37.91502 -23.64075 32427 ft 487 kts 82°
2026-05-03 22:58 37.91855 -23.59857 32657 ft 488 kts 83°
2026-05-03 22:58 37.92211 -23.55571 32862 ft 490 kts 82°
2026-05-03 22:59 37.92565 -23.51320 33010 ft 492 kts 82°
2026-05-03 22:59 37.92921 -23.47004 33214 ft 492 kts 83°
2026-05-03 22:59 37.93272 -23.42725 33379 ft 493 kts 82°
2026-05-03 22:59 37.93628 -23.38380 33504 ft 495 kts 82°
2026-05-03 23:00 37.93978 -23.34080 33640 ft 496 kts 83°
2026-05-03 23:00 37.94332 -23.29715 33768 ft 497 kts 83°
2026-05-03 23:00 37.94679 -23.25408 33892 ft 497 kts 83°
2026-05-03 23:00 37.94926 -23.21029 34019 ft 498 kts 87°
2026-05-03 23:01 37.95039 -23.16645 34151 ft 498 kts 86°
2026-05-03 23:01 37.95286 -23.07915 34214 ft 499 kts 86°
2026-05-03 23:02 37.95530 -22.99151 34237 ft 499 kts 86°
2026-05-03 23:02 37.95769 -22.90421 34235 ft 501 kts 86°
2026-05-03 23:03 37.96001 -22.81640 34234 ft 501 kts 86°
2026-05-03 23:03 37.96228 -22.72840 34235 ft 500 kts 86°
2026-05-03 23:04 37.96448 -22.64041 34231 ft 501 kts 86°
2026-05-03 23:04 37.96661 -22.55249 34233 ft 501 kts 86°
2026-05-03 23:05 37.96867 -22.46492 34233 ft 501 kts 86°
2026-05-03 23:05 37.97068 -22.37664 34233 ft 502 kts 86°
2026-05-03 23:06 37.97264 -22.28823 34232 ft 503 kts 87°
2026-05-03 23:06 37.97451 -22.20021 34229 ft 505 kts 87°
2026-05-03 23:07 37.97633 -22.11154 34230 ft 505 kts 87°
2026-05-03 23:07 37.97809 -22.02272 34231 ft 504 kts 87°
2026-05-03 23:08 37.97976 -21.93448 34230 ft 504 kts 87°
2026-05-03 23:08 37.98138 -21.84599 34231 ft 504 kts 87°
2026-05-03 23:09 37.98294 -21.75724 34227 ft 505 kts 87°
2026-05-03 23:09 37.98443 -21.66869 34226 ft 505 kts 87°
2026-05-03 23:10 37.98584 -21.58021 34226 ft 505 kts 87°
2026-05-03 23:10 37.98719 -21.49161 34217 ft 506 kts 87°
2026-05-03 23:11 37.98849 -21.40221 34215 ft 507 kts 87°
2026-05-03 23:11 37.98972 -21.31315 34209 ft 508 kts 87°
2026-05-03 23:12 37.99087 -21.22440 34211 ft 508 kts 87°
2026-05-03 23:12 37.99197 -21.13511 34211 ft 509 kts 87°
2026-05-03 23:13 37.99300 -21.04534 34213 ft 509 kts 87°
2026-05-03 23:13 37.99396 -20.95652 34209 ft 508 kts 87°
2026-05-03 23:14 37.99485 -20.86686 34209 ft 508 kts 87°
2026-05-03 23:14 37.99567 -20.77770 34215 ft 509 kts 87°
2026-05-03 23:15 37.99643 -20.68849 34213 ft 510 kts 87°
2026-05-03 23:15 37.99713 -20.59867 34213 ft 511 kts 87°
2026-05-03 23:16 37.99776 -20.50849 34211 ft 511 kts 87°
2026-05-03 23:16 37.99831 -20.41880 34211 ft 513 kts 87°
2026-05-03 23:17 37.99880 -20.32839 34206 ft 512 kts 88°
2026-05-03 23:17 37.99922 -20.23843 34212 ft 512 kts 88°
2026-05-03 23:18 37.99958 -20.14850 34209 ft 514 kts 88°
2026-05-03 23:18 37.99985 -20.05838 34210 ft 514 kts 88°
2026-05-03 23:19 38.00064 -19.96769 34211 ft 514 kts 86°
2026-05-03 23:19 38.00253 -19.87753 34217 ft 516 kts 86°
2026-05-03 23:20 38.00432 -19.78702 34210 ft 517 kts 86°
2026-05-03 23:20 38.00606 -19.69582 34209 ft 517 kts 86°
2026-05-03 23:21 38.00770 -19.60514 34208 ft 517 kts 86°
2026-05-03 23:21 38.00928 -19.51494 34207 ft 517 kts 86°
2026-05-03 23:22 38.01153 -19.37863 34208 ft 518 kts 86°
2026-05-03 23:22 38.01295 -19.28747 34195 ft 520 kts 87°
2026-05-03 23:23 38.01430 -19.19559 34191 ft 520 kts 87°
2026-05-03 23:23 38.01557 -19.10483 34194 ft 519 kts 87°
2026-05-03 23:24 38.01678 -19.01370 34193 ft 520 kts 87°
2026-05-03 23:24 38.01791 -18.92224 34194 ft 520 kts 87°
2026-05-03 23:25 38.01898 -18.83034 34199 ft 521 kts 87°
2026-05-03 23:25 38.01997 -18.73888 34205 ft 520 kts 87°
2026-05-03 23:26 38.02090 -18.64729 34208 ft 521 kts 88°
2026-05-03 23:26 38.02175 -18.55607 34216 ft 521 kts 88°
2026-05-03 23:27 38.02254 -18.46456 34203 ft 522 kts 88°
2026-05-03 23:27 38.02325 -18.37253 34202 ft 523 kts 88°
2026-05-03 23:28 38.02389 -18.28111 34188 ft 523 kts 88°
2026-05-03 23:28 38.02447 -18.18902 34191 ft 523 kts 88°
2026-05-03 23:29 38.02496 -18.09709 34185 ft 524 kts 88°
2026-05-03 23:29 38.02539 -18.00540 34173 ft 524 kts 88°
2026-05-03 23:30 38.02575 -17.91334 34175 ft 525 kts 88°
2026-05-03 23:30 38.02604 -17.82051 34175 ft 526 kts 88°
2026-05-03 23:31 38.02626 -17.72861 34167 ft 526 kts 88°
2026-05-03 23:31 38.02639 -17.63583 34171 ft 526 kts 88°
2026-05-03 23:32 38.02647 -17.54359 34174 ft 526 kts 88°
2026-05-03 23:32 38.02647 -17.45097 34176 ft 527 kts 88°
2026-05-03 23:33 38.02639 -17.35831 34175 ft 528 kts 88°
2026-05-03 23:33 38.02624 -17.26559 34166 ft 529 kts 89°
2026-05-03 23:34 38.02600 -17.17240 34173 ft 528 kts 89°
2026-05-03 23:34 38.02572 -17.07991 34169 ft 528 kts 89°
2026-05-03 23:35 38.02536 -16.98702 34168 ft 529 kts 89°
2026-05-03 23:35 38.02492 -16.89387 34163 ft 529 kts 89°
2026-05-03 23:36 38.02441 -16.80130 34170 ft 530 kts 89°
2026-05-03 23:36 38.02381 -16.70782 34168 ft 530 kts 89°
2026-05-03 23:37 38.02314 -16.61525 34164 ft 530 kts 89°
2026-05-03 23:37 38.02241 -16.52144 34168 ft 532 kts 89°
2026-05-03 23:38 38.02160 -16.42802 34166 ft 532 kts 89°
2026-05-03 23:38 38.02072 -16.33508 34166 ft 533 kts 89°
2026-05-03 23:39 38.01976 -16.24105 34155 ft 533 kts 89°
2026-05-03 23:39 38.01873 -16.14733 34150 ft 534 kts 90°
2026-05-03 23:40 38.01761 -16.05333 34153 ft 534 kts 89°
2026-05-03 23:40 38.01642 -15.95988 34150 ft 535 kts 89°
2026-05-03 23:41 38.01516 -15.86591 34147 ft 536 kts 89°
2026-05-03 23:41 38.01382 -15.77163 34149 ft 538 kts 89°
2026-05-03 23:42 38.01240 -15.67722 34152 ft 537 kts 89°
2026-05-03 23:42 38.01090 -15.58303 34156 ft 537 kts 89°
2026-05-03 23:43 38.00934 -15.48864 34162 ft 538 kts 89°
2026-05-03 23:43 38.00767 -15.39362 34159 ft 538 kts 89°
2026-05-03 23:44 38.00597 -15.29921 34147 ft 539 kts 90°
2026-05-03 23:44 38.00415 -15.20414 34150 ft 540 kts 90°
2026-05-03 23:45 38.00226 -15.10917 34148 ft 541 kts 90°
2026-05-03 23:45 38.00032 -15.01455 34148 ft 541 kts 89°
2026-05-03 23:46 38.00347 -14.96752 34133 ft 537 kts 77°
2026-05-03 23:46 38.01017 -14.92095 34162 ft 539 kts 77°
2026-05-03 23:46 38.02258 -14.82709 34148 ft 540 kts 78°
2026-05-03 23:47 38.03464 -14.73393 34149 ft 541 kts 78°
2026-05-03 23:47 38.04678 -14.63936 34145 ft 541 kts 78°
2026-05-03 23:48 38.05869 -14.54604 34144 ft 541 kts 78°
2026-05-03 23:48 38.07065 -14.45169 34143 ft 542 kts 78°
2026-05-03 23:49 38.08247 -14.35789 34143 ft 543 kts 78°
2026-05-03 23:49 38.09426 -14.26374 34132 ft 543 kts 79°
2026-05-03 23:50 38.10408 -14.18460 34132 ft 543 kts 79°
2026-05-03 23:50 38.11764 -14.07484 34130 ft 544 kts 79°
2026-05-03 23:51 38.12925 -13.98019 34132 ft 545 kts 79°
2026-05-03 23:51 38.14084 -13.88502 34133 ft 546 kts 79°
2026-05-03 23:52 38.15234 -13.78990 34123 ft 546 kts 79°
2026-05-03 23:52 38.17068 -13.69788 34145 ft 542 kts 68°
2026-05-03 23:53 38.19477 -13.60717 34125 ft 544 kts 68°
2026-05-03 23:53 38.21872 -13.51614 34129 ft 545 kts 68°
2026-05-03 23:54 38.24270 -13.42460 34126 ft 544 kts 68°
2026-05-03 23:54 38.26645 -13.33362 34136 ft 546 kts 69°
2026-05-03 23:55 38.29028 -13.24244 34117 ft 546 kts 71°
2026-05-03 23:55 38.29723 -13.19449 34121 ft 551 kts 82°
2026-05-03 23:55 38.30174 -13.14649 34133 ft 552 kts 82°
2026-05-03 23:56 38.31101 -13.05008 34120 ft 552 kts 81°
2026-05-03 23:56 38.32025 -12.95348 34120 ft 551 kts 82°
2026-05-03 23:57 38.32939 -12.85703 34126 ft 552 kts 81°
2026-05-03 23:57 38.33854 -12.75983 34122 ft 553 kts 82°
2026-05-03 23:58 38.34753 -12.66304 34123 ft 552 kts 81°
2026-05-03 23:58 38.35650 -12.56612 34129 ft 553 kts 82°
2026-05-03 23:59 38.36535 -12.46934 34122 ft 553 kts 82°
2026-05-03 23:59 38.37415 -12.37221 34122 ft 552 kts 82°
2026-05-04 00:00 38.38287 -12.27507 34101 ft 556 kts 82°
2026-05-04 00:00 38.39159 -12.17703 34109 ft 558 kts 83°
2026-05-04 00:01 38.40018 -12.07949 33972 ft 561 kts 83°
2026-05-04 00:01 38.40450 -12.03007 33685 ft 559 kts 83°
2026-05-04 00:01 38.40870 -11.98172 33442 ft 554 kts 83°
2026-05-04 00:02 38.41293 -11.93291 33210 ft 552 kts 83°
2026-05-04 00:02 38.41708 -11.88475 32983 ft 550 kts 83°
2026-05-04 00:02 38.42120 -11.83652 32753 ft 548 kts 83°
2026-05-04 00:02 38.42544 -11.78712 32518 ft 546 kts 83°
2026-05-04 00:03 38.42952 -11.73903 32290 ft 545 kts 83°
2026-05-04 00:03 38.43357 -11.69101 32065 ft 543 kts 83°
2026-05-04 00:03 38.43757 -11.64354 31840 ft 541 kts 83°
2026-05-04 00:03 38.44121 -11.59638 31638 ft 539 kts 84°
2026-05-04 00:04 38.44476 -11.54876 31463 ft 538 kts 84°
2026-05-04 00:04 38.44824 -11.50124 31287 ft 536 kts 84°
2026-05-04 00:04 38.45169 -11.45428 31114 ft 535 kts 83°
2026-05-04 00:04 38.45512 -11.40717 30940 ft 534 kts 84°
2026-05-04 00:05 38.45852 -11.36012 30766 ft 533 kts 83°
2026-05-04 00:05 38.46188 -11.31371 30582 ft 530 kts 84°
2026-05-04 00:05 38.46523 -11.26654 30385 ft 529 kts 84°
2026-05-04 00:05 38.46854 -11.22024 30199 ft 539 kts 84°
2026-05-04 00:06 38.47198 -11.17186 30002 ft 551 kts 84°
2026-05-04 00:06 38.47543 -11.12271 29798 ft 558 kts 84°
2026-05-04 00:06 38.47884 -11.07381 29593 ft 553 kts 84°
2026-05-04 00:06 38.48223 -11.02519 29382 ft 550 kts 85°
2026-05-04 00:07 38.48554 -10.97716 29068 ft 547 kts 85°
2026-05-04 00:07 38.48884 -10.92912 28725 ft 543 kts 85°
2026-05-04 00:07 38.49207 -10.88165 28397 ft 540 kts 85°
2026-05-04 00:07 38.49530 -10.83432 28077 ft 537 kts 85°
2026-05-04 00:08 38.49852 -10.78658 27744 ft 533 kts 85°
2026-05-04 00:08 38.50165 -10.73976 27425 ft 530 kts 85°
2026-05-04 00:08 38.50476 -10.69311 27106 ft 528 kts 85°
2026-05-04 00:08 38.50782 -10.64688 26774 ft 525 kts 85°
2026-05-04 00:09 38.51083 -10.60094 26458 ft 522 kts 85°
2026-05-04 00:09 38.51385 -10.55501 26136 ft 521 kts 85°
2026-05-04 00:09 38.51681 -10.50931 25780 ft 518 kts 85°
2026-05-04 00:09 38.51977 -10.46373 25403 ft 514 kts 85°
2026-05-04 00:10 38.52267 -10.41849 25026 ft 510 kts 85°
2026-05-04 00:10 38.52555 -10.37347 24661 ft 507 kts 85°
2026-05-04 00:10 38.52836 -10.32925 24287 ft 505 kts 86°
2026-05-04 00:10 38.53117 -10.28466 23899 ft 501 kts 86°
2026-05-04 00:11 38.53392 -10.24075 23521 ft 499 kts 86°
2026-05-04 00:11 38.53666 -10.19690 23130 ft 495 kts 86°
2026-05-04 00:11 38.53938 -10.15306 22724 ft 492 kts 86°
2026-05-04 00:11 38.54201 -10.11005 22197 ft 490 kts 86°
2026-05-04 00:12 38.54464 -10.06719 21670 ft 482 kts 86°
2026-05-04 00:12 38.54721 -10.02506 21163 ft 478 kts 86°
2026-05-04 00:12 38.54976 -9.98281 20654 ft 471 kts 86°
2026-05-04 00:12 38.55223 -9.94164 20142 ft 462 kts 86°
2026-05-04 00:13 38.55463 -9.90160 19642 ft 453 kts 86°
2026-05-04 00:13 38.55700 -9.86168 19093 ft 440 kts 86°
2026-05-04 00:13 38.55923 -9.82391 18494 ft 419 kts 86°
2026-05-04 00:13 38.56135 -9.78807 17898 ft 397 kts 86°
2026-05-04 00:14 38.56334 -9.75389 17264 ft 379 kts 86°
2026-05-04 00:14 38.56525 -9.72114 16556 ft 367 kts 86°
2026-05-04 00:14 38.56712 -9.68883 15778 ft 358 kts 86°
2026-05-04 00:14 38.56890 -9.65788 15049 ft 350 kts 86°
2026-05-04 00:15 38.57064 -9.62737 14307 ft 342 kts 86°
2026-05-04 00:15 38.57235 -9.59753 13511 ft 337 kts 86°
2026-05-04 00:15 38.57402 -9.56785 12553 ft 337 kts 86°
2026-05-04 00:15 38.57568 -9.53852 11622 ft 335 kts 85°
2026-05-04 00:16 38.57735 -9.50899 10708 ft 332 kts 85°
2026-05-04 00:16 38.57895 -9.48035 10180 ft 315 kts 85°
2026-05-04 00:16 38.58046 -9.45349 9695 ft 302 kts 85°
2026-05-04 00:16 38.58192 -9.42725 9192 ft 291 kts 84°
2026-05-04 00:17 38.58333 -9.40173 8653 ft 283 kts 84°
2026-05-04 00:17 38.58470 -9.37692 8027 ft 281 kts 84°
2026-05-04 00:17 38.58608 -9.35198 7270 ft 283 kts 84°
2026-05-04 00:17 38.58744 -9.32718 6516 ft 282 kts 84°
2026-05-04 00:18 38.58877 -9.30254 5773 ft 281 kts 84°
2026-05-04 00:18 38.59011 -9.27783 5092 ft 277 kts 84°
2026-05-04 00:18 38.59288 -9.25408 4463 ft 269 kts 66°
2026-05-04 00:18 38.60290 -9.23523 4004 ft 250 kts 35°
2026-05-04 00:19 38.61696 -9.22331 3642 ft 234 kts 23°
2026-05-04 00:19 38.63132 -9.21560 3292 ft 215 kts 20°
2026-05-04 00:19 38.64466 -9.20846 2980 ft 201 kts 20°
2026-05-04 00:19 38.65706 -9.20185 2732 ft 184 kts 19°
2026-05-04 00:20 38.66803 -9.19600 2558 ft 156 kts 19°
2026-05-04 00:20 38.67749 -9.19098 2278 ft 142 kts 19°
2026-05-04 00:20 38.68639 -9.18624 2026 ft 138 kts 18°
2026-05-04 00:20 38.69527 -9.18173 1830 ft 136 kts 18°
2026-05-04 00:21 38.70395 -9.17713 1660 ft 136 kts 19°
2026-05-04 00:21 38.71276 -9.17243 1494 ft 135 kts 19°
2026-05-04 00:21 38.72144 -9.16776 1319 ft 135 kts 19°
2026-05-04 00:21 38.73024 -9.16309 1138 ft 135 kts 20°
2026-05-04 00:22 38.73900 -9.15844 957 ft 137 kts 19°
2026-05-04 00:22 38.74781 -9.15378 765 ft 138 kts 20°
2026-05-04 00:22 38.75671 -9.14900 573 ft 139 kts 19°
2026-05-04 00:22 38.76553 -9.14432 405 ft 139 kts 18°
2026-05-04 00:23 38.77416 -9.13970 361 ft 124 kts 21°
2026-05-04 00:23 38.77993 -9.13667 368 ft 65 kts 22°
2026-05-04 00:23 38.78242 -9.13510 365 ft 29 kts 34°
2026-05-04 00:23 38.78353 -9.13377 361 ft 13 kts 49°
2026-05-04 00:24 38.78363 -9.13274 355 ft 9 kts 130°
2026-05-04 00:24 38.78293 -9.13276 353 ft 13 kts 203°
2026-05-04 00:24 38.78186 -9.13335 352 ft 19 kts 203°
2026-05-04 00:24 38.78041 -9.13412 351 ft 25 kts 203°
2026-05-04 00:25 38.77913 -9.13482 352 ft 17 kts 203°
2026-05-04 00:25 38.77784 -9.13549 352 ft 22 kts 202°
2026-05-04 00:25 38.77630 -9.13632 352 ft 16 kts 203°
2026-05-04 00:25 38.77513 -9.13694 350 ft 18 kts 202°
2026-05-04 00:26 38.77375 -9.13767 350 ft 24 kts 203°
2026-05-04 00:26 38.77244 -9.13837 350 ft 23 kts 203°
2026-05-04 00:26 38.77136 -9.13894 349 ft 16 kts 197°
2026-05-04 00:26 38.77054 -9.13889 349 ft 10 kts 169°
2026-05-04 00:27 38.76983 -9.13870 348 ft 10 kts 167°
2026-05-04 00:27 38.76941 -9.13859 347 ft 0 kts 165°
2026-05-04 00:27 38.76930 -9.13836 347 ft 5 kts 99°
2026-05-04 00:27 38.76931 -9.13798 347 ft 3 kts 85°
2026-05-04 00:28 38.76935 -9.13774 347 ft 1 kts 78°
2026-05-04 00:28 38.76937 -9.13762 347 ft 1 kts 78°
2026-05-04 00:28 38.76939 -9.13751 346 ft 1 kts 78°
2026-05-04 00:28 38.76939 -9.13747 346 ft 0 kts 78°
2026-05-04 00:29 38.76940 -9.13746 346 ft 0 kts 78°